Regional Weather Roundup
Issued by NWS

Home | Current Version | Previous Version | Graphics & Text | Print | Product List | Glossary On
Versions: 1 2 3 4 5 6 7 8 9 10 11 12 13 14 15 16 17 18 19 20 21 22 23 24 25 26 27 28 29 30 31 32 33 34 35 36 37 38 39 40 41 42 43 44 45 46 47 48 49 50
000
ASUS43 KMKX 202000
RWRWI

WISCONSIN REGIONAL WEATHER ROUNDUP
NATIONAL WEATHER SERVICE MILWAUKEE/SULLIVAN WI
300 PM CDT SAT SEP 20 2014

NOTE: "FAIR" INDICATES FEW OR NO CLOUDS BELOW 12,000 FEET WITH NO
SIGNIFICANT WEATHER AND/OR OBSTRUCTIONS TO VISIBILITY.

WIZ001-002-006>008-014>016-023>028-202100-
NORTHWEST WISCONSIN

CITY           SKY/WX    TMP DP  RH WIND       PRES   REMARKS
SUPERIOR ARPT  SUNNY     71  51  49 NW12G18   29.71S
ASHLAND        SUNNY     68  52  56 W10       29.72S
HAYWARD        SUNNY     70  50  49 W9        29.73F
SIREN          MOSUNNY   69  53  57 NW12G17   29.75F
RICE LAKE      MOSUNNY   72  54  53 W13G20    29.75F
LADYSMITH      PTSUNNY   73  57  58 W9        29.74F
EAU CLAIRE     NOT AVBL
MENOMONIE      CLEAR     75  53  45 W12G22    29.74F
NEW RICHMOND   MOSUNNY   74  53  47 W16       29.77S
OSCEOLA        MOSUNNY   74  56  53 W16       29.79S
$$

WIZ003>005-009-010-017-018-202100-
NORTH CENTRAL WISCONSIN

CITY           SKY/WX    TMP DP  RH WIND       PRES   REMARKS
WOODRUFF       PTSUNNY   72  57  59 N10       29.71F
RHINELANDER    MOSUNNY   70  56  61 VRB6      29.72S
EAGLE RIVER    MOSUNNY   67  53  59 W6        29.70S
LAND O LAKES   PTSUNNY   67  55  64 NW8       29.71F
PHILLIPS       MOSUNNY   70  56  60 W9        29.71S
TOMAHAWK       PTSUNNY   73  56  55 NW9       29.71S
MEDFORD        MOSUNNY   71  56  59 NW10      29.73R
MERRILL        MOSUNNY   74  56  54 NW12      29.70S
$$

WIZ029-030-035-036-043>047-202100-
CENTRAL WISCONSIN

CITY           SKY/WX    TMP DP  RH WIND       PRES   REMARKS
WAUSAU         PTSUNNY   76  57  51 W15G25    29.69S
MOSINEE        MOSUNNY   73  61  64 W12       29.72S
MARSHFIELD     MOSUNNY   74  57  55 NW16      29.74R
STEVENS POINT  PTSUNNY   73  58  58 W10G21    29.72S
WAUPACA        PTSUNNY   76  65  69 SW12      29.72S
WAUTOMA        MOSUNNY   75  64  69 W9        29.73F
WISC RAPIDS    MOSUNNY   77  59  53 W15G22    29.74S
CAMP DOUGLAS   NOT AVBL
$$

WIZ011>013-019>022-031-037>040-048>050-202100-
NORTHEAST WISCONSIN

CITY           SKY/WX    TMP DP  RH WIND       PRES   REMARKS
ANTIGO         CLOUDY    70  57  63 NW12      29.71S
STURGEON BAY   CLOUDY    70  63  78 SW16      29.68R
GREEN BAY      CLOUDY    72  64  76 SW12G17   29.69F
MANITOWOC      NOT AVBL
APPLETON       PTSUNNY   72  63  73 SW15      29.72F
CLINTONVILLE   CLOUDY    73  63  68 SW12      29.69F
OSHKOSH        CLOUDY    70  64  81 W6        29.72F
$$

WIZ032>034-041-042-053>061-202100-
SOUTHWEST WISCONSIN

CITY           SKY/WX    TMP DP  RH WIND       PRES   REMARKS
LA CROSSE      MOSUNNY   77  61  57 NW8       29.75S
SPARTA         PTSUNNY   74  59  59 W8        29.76S
VIROQUA        FAIR      75  61  60 W9G17     29.79R
BOSCOBEL       SUNNY     78  63  59 SW13      29.78S HX  80
PRAIRIE DU CHI MOSUNNY   79  60  52 SW9       29.78S HX  80
PLATTEVILLE    FAIR      78  64  62 SW18G28   29.82F
$$

WIZ056-057-062-063-064-067-068-202100-
SOUTH CENTRAL WISCONSIN

CITY           SKY/WX    TMP DP  RH WIND       PRES   REMARKS
BARABOO/DELLS  CLOUDY    72  62  71 SW13      29.76S
LONE ROCK      NOT AVBL
WATERTOWN      DRIZZLE   72  65  79 SW12G17   29.77F
MADISON        CLOUDY    75  63  66 SW8       29.77F
MIDDLETON      FAIR      75  63  66 SW13G20   29.78F
MONROE         CLOUDY    73  64  73 SW18G24   29.81F
JANESVILLE     PTSUNNY   72  66  83 SW12      29.78F
$$

WIZ051-052-058>065-066-070>072-202100-
SOUTHEAST WISCONSIN

CITY           SKY/WX    TMP DP  RH WIND       PRES   REMARKS
MILWAUKEE      CLOUDY    74  63  68 SW18G24   29.79R
WAUKESHA       CLOUDY    72  63  73 SW10G20   29.79S
MILWAUKEE/TIMM RAIN      73  61  64 SW14G23   29.78S
RACINE         LGT RAIN  71  66  84 SW7       29.80F
BURLINGTON     CLOUDY    69  64  83 W10       29.82R
KENOSHA        LGT RAIN  72  65  78 W13       29.80F
FOND DU LAC    CLOUDY    69  65  86 SW6       29.73F
SHEBOYGAN      LGT RAIN  71  63  75 W16G23    29.74S
WEST BEND      CLOUDY    72  61  68 SW8       29.75F
JUNEAU         LGT RAIN  69  64  85 SW8       29.76F
$$

LSZ147-162-202100-
LAKE SUPERIOR

STATION/POSITION TIME  TEMP    WIND        PRES    WAVE
                       AIR SEA DIR/SP/G            HT/PER
                 (UTC) (F)     (DEG/KT/KT) (MB)    (FT/S)
W MID LAKE BUOY  1850   53 48  250/ 14/ 14 1004.5R   2/ 4
DEVILS ISLAND    1900   56     260/ 14/ 17 1006.0R
PORT WING        1900   62     240/ 10/ 13 1007.1S
SAXON HARBOR     1900   64     290/  8/ 14 1006.4S
$$

LMZ867-665-643>646-202100-
LAKE MICHIGAN

STATION/POSITION TIME  TEMP    WIND        PRES    WAVE
                       AIR SEA DIR/SP/G            HT/PER
                 (UTC) (F)     (DEG/KT/KT) (MB)    (FT/S)
N MID LAKE BUOY  1850   60 58  220/ 17/ 21 1003.0F   6/ 7
NORTHPORT PIER   1900   73     220/  5/ 13 1003.0F
KEWAUNEE LAKESHO 1900   71     250/  9/ 15 1004.9F
SHEBOYGAN LAKESH 1900   74 55  240/ 15/ 18 1006.9F
PORT WASHINGTON  1940   77     250/ 10/ 19 1007.5F
ATWATER BUOY     1900   72     220/ 16/ 23 1009.2F
MILWAUKEE LAKESH 1900   76     250/ 12/ 16   N/A
S MID LAKE BUOY  1850   66 63  210/ 14/ 17 1008.9F   4/ 6
KENOSHA   LAKESH 1900   76     240/ 11/ 20 1009.1F
$$

TC  - TEMPERATURE IN CELSIUS
VSB - VISIBILITY IN STATUTE MILES
WCI - WIND CHILL INDEX
HX  - HEAT INDEX



USA.gov is the U.S. government's official web portal to all federal, state and local government web resources and services.